Date String (YYYY-MM-DD hh:mm:ss) UTC,Instrument flags,absolute air pressure of the measurement (hPa),sample flow rate (lpm),inlet stack bypass flow (lpm),air temperature of the measurement (°C),ambient temperature measured by the external sensor (°C),aerosol sample conditioner tube jacket temperature (°C),OPC LED temperature (°C),internal box temperature (°C),relative humidity of the measurement (%),span deviation,mass concentration of particles derived from Lorenz-Mie calculation of OPC scattering (μg/m³),mass concentration of particles derived from Lorenz-Mie calculation of OPC scattering (μg/m³),mass concentration of particles derived from Lorenz-Mie calculation of OPC scattering (μg/m³)
DateTimeUTC,F1_M11,P_M11,Q1_M11,Q2_M11,T1_M11,T2_M11,T3_M11,T4_M11,T5_M11,U1_M11,ZSPAN_M11,X2_M11,X0_M11,X1_M11
2023-08-29 01:00:00,SystemResetWarning,0838.0,5.00,000.00,029.1,025.4,000.0,037.5,029.8,30.8,0000.0,0003.05,0004.38,0002.49
2023-08-29 01:01:00,SystemResetWarning,0838.0,5.00,000.00,029.1,025.8,000.0,037.5,029.9,31.6,0000.0,0003.06,0004.50,0002.46
2023-08-29 01:02:00,SystemResetWarning,0838.0,4.99,000.00,029.1,026.1,000.0,037.5,029.9,31.8,0000.0,0003.08,0004.66,0002.42
2023-08-29 01:03:00,SystemResetWarning,0838.0,4.99,000.00,029.1,026.4,000.0,037.5,030.0,31.1,0000.0,0003.02,0004.53,0002.40
2023-08-29 01:04:00,SystemResetWarning,0838.0,5.01,000.00,029.1,026.6,000.0,037.5,030.1,30.9,0000.0,0002.98,0004.27,0002.40
2023-08-29 01:05:00,SystemResetWarning,0838.0,5.00,000.00,029.1,026.8,000.0,037.5,030.1,30.1,0000.0,0003.02,0004.34,0002.41
2023-08-29 01:06:00,SystemResetWarning,0838.0,4.99,000.00,029.1,027.0,000.0,037.5,030.2,29.9,0000.0,0002.96,0004.21,0002.39
2023-08-29 01:07:00,SystemResetWarning,0838.0,4.99,000.00,029.1,027.1,000.0,037.5,030.2,29.9,0000.0,0002.91,0004.10,0002.38
2023-08-29 01:08:00,SystemResetWarning,0838.0,5.00,000.00,029.1,027.1,000.0,037.5,030.2,29.9,0000.0,0002.89,0004.08,0002.39
2023-08-29 01:09:00,SystemResetWarning,0838.0,4.99,000.00,029.1,025.6,000.0,037.3,029.9,29.8,0000.0,0002.92,0004.17,0002.40
2023-08-29 01:10:00,SystemResetWarning,0838.0,5.01,000.00,029.0,024.1,000.0,037.2,029.6,30.5,0000.0,0002.92,0004.19,0002.38
2023-08-29 01:11:00,SystemResetWarning,0838.0,5.00,000.00,028.9,023.8,000.0,037.1,029.5,31.0,0000.0,0002.90,0004.14,0002.35
2023-08-29 01:12:00,SystemResetWarning,0838.0,5.01,000.00,028.7,024.0,000.0,037.1,029.3,31.9,0000.0,0002.80,0003.97,0002.30
2023-08-29 01:13:00,SystemResetWarning,0837.9,5.01,000.00,028.6,024.5,000.0,037.1,029.4,32.8,0000.0,0002.71,0003.76,0002.24
2023-08-29 01:14:00,SystemResetWarning,0838.0,4.99,000.00,028.6,024.9,000.0,037.1,029.5,33.3,0000.0,0002.65,0003.75,0002.18
2023-08-29 01:15:00,SystemResetWarning,0838.0,5.00,000.00,028.6,025.4,000.0,037.1,029.6,33.6,0000.0,0002.58,0003.67,0002.12
2023-08-29 01:16:00,SystemResetWarning,0838.0,5.00,000.00,028.6,025.8,000.0,037.1,029.7,33.9,0000.0,0002.47,0003.43,0002.05
2023-08-29 01:17:00,SystemResetWarning,0838.1,4.99,000.00,028.6,026.1,000.0,037.1,029.8,34.0,0000.0,0002.40,0003.36,0001.98
2023-08-29 01:18:00,SystemResetWarning,0838.2,4.99,000.00,028.6,026.4,000.0,037.1,029.9,33.9,0000.0,0002.36,0003.35,0001.93
2023-08-29 01:19:00,SystemResetWarning,0838.3,5.00,000.00,028.7,026.7,000.0,037.1,030.0,34.1,0000.0,0002.28,0003.21,0001.88
2023-08-29 01:20:00,SystemResetWarning,0838.6,5.00,000.00,028.7,026.9,000.0,037.1,030.0,34.6,0000.0,0002.21,0003.05,0001.84
2023-08-29 01:21:00,SystemResetWarning,0838.7,5.00,000.00,028.7,027.0,000.0,037.1,030.1,34.6,0000.0,0002.19,0003.01,0001.83
2023-08-29 01:22:00,SystemResetWarning,0838.7,4.99,000.00,028.8,027.2,000.0,037.1,030.2,35.0,0000.0,0002.15,0002.99,0001.82
2023-08-29 01:23:00,SystemResetWarning,0838.8,5.00,000.00,028.9,027.3,000.0,037.2,030.3,34.4,0000.0,0002.15,0003.05,0001.82
2023-08-29 01:24:00,SystemResetWarning,0838.8,4.99,000.00,029.0,027.4,000.0,037.2,030.3,33.4,0000.0,0002.15,0003.01,0001.83
2023-08-29 01:25:00,SystemResetWarning,0838.7,5.02,000.00,029.1,027.5,000.0,037.2,030.3,33.3,0000.0,0002.22,0003.09,0001.84
2023-08-29 01:26:00,SystemResetWarning,0838.6,5.01,000.00,029.1,027.4,000.0,037.2,030.4,32.5,0000.0,0002.25,0003.11,0001.85
2023-08-29 01:27:00,SystemResetWarning,0838.6,4.98,000.00,029.1,026.0,000.0,037.1,030.2,32.7,0000.0,0002.23,0003.07,0001.87
2023-08-29 01:28:00,SystemResetWarning,0838.6,5.00,000.00,029.1,024.7,000.0,037.0,030.0,32.8,0000.0,0002.26,0003.07,0001.91
2023-08-29 01:29:00,SystemResetWarning,0838.6,5.02,000.00,029.0,024.6,000.0,037.0,029.7,33.2,0000.0,0002.27,0003.10,0001.92
2023-08-29 01:30:00,SystemResetWarning,0838.8,4.99,000.00,028.8,024.8,000.0,037.1,029.7,33.4,0000.0,0002.32,0003.27,0001.93
2023-08-29 01:31:00,SystemResetWarning,0838.8,5.00,000.00,028.8,025.2,000.0,037.1,029.7,33.5,0000.0,0002.30,0003.23,0001.91
2023-08-29 01:32:00,SystemResetWarning,0838.9,5.01,000.00,028.8,025.6,000.0,037.1,029.8,33.6,0000.0,0002.31,0003.26,0001.90
2023-08-29 01:33:00,SystemResetWarning,0839.1,5.01,000.00,028.8,026.0,000.0,037.2,029.9,33.7,0000.0,0002.34,0003.30,0001.89
2023-08-29 01:34:00,SystemResetWarning,0839.1,5.00,000.00,028.8,026.3,000.0,037.2,030.0,33.6,0000.0,0002.31,0003.13,0001.88
2023-08-29 01:35:00,SystemResetWarning,0839.3,5.00,000.00,028.8,026.6,000.0,037.2,030.0,33.8,0000.0,0002.32,0003.17,0001.86
2023-08-29 01:36:00,SystemResetWarning,0839.3,5.01,000.00,028.8,026.8,000.0,037.2,030.1,34.1,0000.0,0002.26,0003.12,0001.86
2023-08-29 01:37:00,SystemResetWarning,0839.3,5.00,000.00,028.8,027.0,000.0,037.2,030.1,33.9,0000.0,0002.20,0003.04,0001.83
2023-08-29 01:38:00,SystemResetWarning,0839.3,4.99,000.00,028.9,027.2,000.0,037.2,030.2,33.7,0000.0,0002.19,0003.21,0001.82
2023-08-29 01:39:00,SystemResetWarning,0839.2,4.99,000.00,028.9,027.3,000.0,037.3,030.2,33.4,0000.0,0002.17,0003.30,0001.78
2023-08-29 01:40:00,SystemResetWarning,0839.2,5.00,000.00,028.9,027.4,000.0,037.3,030.3,33.5,0000.0,0002.09,0003.16,0001.74
2023-08-29 01:41:00,SystemResetWarning,0839.2,5.00,000.00,028.9,027.5,000.0,037.3,030.3,33.5,0000.0,0002.06,0003.14,0001.72
2023-08-29 01:42:00,SystemResetWarning,0839.2,5.01,000.00,029.0,027.5,000.0,037.3,030.4,32.8,0000.0,0002.08,0003.23,0001.72
2023-08-29 01:43:00,SystemResetWarning,0839.1,4.99,000.00,029.0,025.9,000.0,037.2,030.2,32.3,0000.0,0002.11,0003.29,0001.73
2023-08-29 01:44:00,SystemResetWarning,0839.1,5.00,000.00,028.9,024.2,000.0,037.0,029.8,32.2,0000.0,0002.10,0003.29,0001.73
2023-08-29 01:45:00,SystemResetWarning,0839.1,5.01,000.00,028.7,023.6,000.0,036.9,029.5,32.5,0000.0,0002.13,0003.35,0001.76
2023-08-29 01:46:00,SystemResetWarning,0839.1,5.01,000.00,028.6,023.8,000.0,036.9,029.3,32.9,0000.0,0002.15,0003.44,0001.78
2023-08-29 01:47:00,SystemResetWarning,0839.1,5.00,000.00,028.5,024.3,000.0,037.0,029.4,33.1,0000.0,0002.16,0003.40,0001.79
2023-08-29 01:48:00,SystemResetWarning,0839.0,5.01,000.00,028.4,024.8,000.0,037.0,029.5,33.0,0000.0,0002.18,0003.38,0001.83
2023-08-29 01:49:00,SystemResetWarning,0838.9,5.01,000.00,028.4,025.2,000.0,037.0,029.6,33.1,0000.0,0002.23,0003.71,0001.88
2023-08-29 01:50:00,SystemResetWarning,0839.0,4.99,000.00,028.4,025.7,000.0,037.0,029.7,33.1,0000.0,0002.30,0003.80,0001.94
2023-08-29 01:51:00,SystemResetWarning,0839.0,5.00,000.00,028.4,026.0,000.0,037.0,029.8,33.3,0000.0,0002.44,0004.15,0002.02
2023-08-29 01:52:00,SystemResetWarning,0838.9,5.01,000.00,028.4,026.3,000.0,037.0,029.9,33.6,0000.0,0002.53,0004.38,0002.09
2023-08-29 01:53:00,SystemResetWarning,0838.9,5.00,000.00,028.5,026.6,000.0,037.0,029.9,34.0,0000.0,0002.57,0004.35,0002.14
2023-08-29 01:54:00,SystemResetWarning,0838.9,4.99,000.00,028.5,026.8,000.0,037.0,030.0,33.8,0000.0,0002.60,0004.36,0002.18
2023-08-29 01:55:00,SystemResetWarning,0838.9,5.00,000.00,028.5,026.9,000.0,037.0,030.0,33.7,0000.0,0002.62,0004.40,0002.22
2023-08-29 01:56:00,SystemResetWarning,0838.9,5.00,000.00,028.5,027.0,000.0,037.0,030.1,33.7,0000.0,0002.68,0004.49,0002.25
2023-08-29 01:57:00,SystemResetWarning,0838.9,5.00,000.00,028.6,027.1,000.0,037.0,030.1,33.7,0000.0,0002.82,0004.77,0002.29
2023-08-29 01:58:00,SystemResetWarning,0838.9,5.00,000.00,028.6,027.2,000.0,037.0,030.1,34.1,0000.0,0002.94,0005.09,0002.34
2023-08-29 01:59:00,SystemResetWarning,0838.8,5.00,000.00,028.6,027.3,000.0,037.1,030.2,34.8,0000.0,0003.02,0005.40,0002.36
